Regional Weather Roundup
Issued by NWS

Home | Current Version | Previous Version | Graphics & Text | Print | Product List | Glossary On
Versions: 1 2 3 4 5 6 7 8 9 10 11 12 13 14 15 16 17 18 19 20 21 22 23 24 25 26 27 28 29 30 31 32 33 34 35 36 37 38 39 40 41 42 43 44 45 46 47 48 49 50
000
ASUS43 KLSX 261559
RWRMO

WEATHER SUMMARY FOR MISSOURI
NATIONAL WEATHER SERVICE SPRINGFIELD MO
1000 AM CST WED NOV 26 2014

NOTE: "FAIR" INDICATES FEW OR NO CLOUDS BELOW 12,000 FEET WITH NO
       SIGNIFICANT WEATHER AND/OR OBSTRUCTIONS TO VISIBILITY.
       CURRENT SKY AND/OR WEATHER CONDITIONS ARE NOT AVAILABLE FOR
       CHILLICOTHE AND FARMINGTON.

MOZ001>031-035>038-043-044-053-054-261700-
...NORTHERN AND WESTERN MISSOURI...

CITY           SKY/WX    TMP DP  RH WIND       PRES   REMARKS
KANSAS CTY INT CLOUDY    41  33  73 NW17G25   29.96R
KANSAS C DTWN  CLOUDY    43  32  65 NW13      29.97R
LEE`S SUMMIT   CLOUDY    41  33  73 W10G18    29.97R
ST JOSEPH      CLOUDY    40  33  76 NW23G33   29.97R WCI  30
CHILLICOTHE      N/A     38  33  82 SW5       29.93R
KIRKSVILLE     CLOUDY    31  31 100 S8        29.93R FOG     WCI  23

$$
MOZ066>068-077>081-088>096-101>105-261700-
...SOUTHWEST MISSOURI...

CITY           SKY/WX    TMP DP  RH WIND       PRES   REMARKS
SPRINGFIELD    MOSUNNY   38  34  85 W7        29.99S
JOPLIN         SUNNY     45  30  55 W10       30.05R

$$
MOZ032>034-039>042-045>050-055>058-069>072-261700-
...CENTRAL MISSOURI...

CITY           SKY/WX    TMP DP  RH WIND       PRES   REMARKS
COLUMBIA       CLOUDY    34  33  96 S5        29.96S WCI  30
JEFFERSON CITY MIX PCPN  36  33  89 S3        29.98
ROLLA          SNOW      32  30  92 S8        29.96F VSB 1/2 WCI  25
SEDALIA        SUNNY     40  32  73 W13G20    29.96R
WARRENSBURG    CLOUDY    41  34  75 W12       29.97R
OSAGE BEACH    CLOUDY    34  30  86 S6        29.98F WCI  29

$$
MOZ051-052-059>065-261700-
...EAST CENTRAL MISSOURI...

CITY           SKY/WX    TMP DP  RH WIND       PRES   REMARKS
ST LOUIS INTL  CLOUDY    34  27  75 SE12      30.04F WCI  25
SPIRIT OF STL  CLOUDY    32  26  78 SE7       30.02S WCI  26
ST CHARLES     CLOUDY    32  29  88 SE8       30.05S WCI  25

$$
MOZ072>076-082>087-097>100-106>115-261700-
...SOUTH CENTRAL AND SOUTHEAST MISSOURI...

CITY           SKY/WX    TMP DP  RH WIND       PRES   REMARKS
CAPE GIRARDEAU CLOUDY    36  31  82 SE14      30.10F WCI  27
FARMINGTON     CLOUDY    32  28  86 CALM      30.03F
POPLAR BLUFF   CLOUDY    36  29  75 E8        30.06F WCI  30
WEST PLAINS    SNOW      31  27  85 NE3       30.02R VSB 1/2

$$


USA.gov is the U.S. government's official web portal to all federal, state and local government web resources and services.